DELTA 1 DEB, 42560

Orbit data source: Space-Track

DELTA 1 DEB, 42560 is space debris in SSO originally from a launch on Sun, 23 Jul 1972 UTC launched from the Air Force Western Test Range (AFWTR). Debris objects in space refer to the collection of defunct objects orbiting the Earth. Examples of debris include non-operational satellites, rocket bodies, and fragments generated from explosions, collisions, or faulty payload assembly.

Loading next visibility...
Identifier
42560, 1972-058JT
Orbit
SSO
Country
Flag of USUS
Related business
Manufacturer
Unknown
Mission
Spacecraft
Bus & Motor
Unknown
Mass
Unknown
Launch date (UTC)
1972-07-23 (54 years ago)
Launch vehicle
Unknown
Launch site
Air Force Western Test Range (AFWTR)
Object type
Payload
Rocket body
Debris
Shape & HBR
Unknown shape, 0.1 m
Radar Cross Section
Small (<0.1 m²)

Expand to show TLE details & history
Last TLE update: 1 week ago

TLE from 1 week ago
0 DELTA 1 DEB
1 42560U 72058JT  26154.73688838  .00000372  00000-0  10386-3 0  9991
2 42560  97.8821 118.9047 0094200 229.1656 252.2490 14.49043942661771
Epoch: 2026-06-03T17:41Z
TLE epoch observation values (Epoch: 2026-06-03T17:41:07.156Z)
Latitude
58.79727°
Longitude
154.57495°
Altitude
759.705 km
Speed
7.469 km/s
True Right ascension
20h 48m 11s
True Declination
58° 38' 41"
Sunlit
Object was in daylight at epoch
Visualization orbit readout
Latitude
Unknown
Longitude
Unknown
Altitude
Unknown
Speed
Unknown
Apparent Right ascension
Unknown
Apparent Declination
Unknown
Sunlit
N/A
Visualization observer readout
Local Sidereal Time
08:02:57
Azimuth
Unknown
Elevation
Unknown
Doppler factor
Unknown
Orbital elements
Apogee altitude
792.774 km
Perigee altitude
658.934 km
Semi-major axis
7,103.991 km
Eccentricity
0.00942
Inclination
97.8821°
RAAN
118.9047°
Arg. of periapsis
229.1656°
True anomaly
251.22467°
Mean anomaly
252.249°
Eccentric anomaly
251.73646°
Mean motion
3.62485 °/min
Orbital period
99.31 mins
BSTAR
0.00010386
Loading maneuver chart data...
Computing Atmospheric mass density...
Loading historical data...
Loading historical data...
Loading historical data...
Loading historical data...
Loading historical data...
Loading historical data...
Loading historical data...

Documentation

Showing up to 5 results
|